Time,TemperatureF,DewpointF,PressureIn,WindDirection,WindDirectionDegrees,WindSpeedMPH,WindSpeedGustMPH,Humidity,HourlyPrecipIn,Conditions,Clouds,dailyrainin,SolarRadiationWatts/m^2,SoftwareType,DateUTC
2013-11-16 00:11:00,32.0,32.0,-100.00,South,179,11.0,21.0,98,0.00,,,0.00,0.000000,,2013-11-16 07:11:00,
2013-11-16 00:22:00,32.0,32.0,-100.00,South,179,11.0,21.0,98,0.00,,,0.00,0.000000,,2013-11-16 07:22:00,
2013-11-16 00:33:00,32.0,32.0,-100.00,South,179,11.0,21.0,98,0.00,,,0.00,0.000000,,2013-11-16 07:33:00,
2013-11-16 01:12:00,31.0,31.0,-100.00,South,183,10.0,20.0,98,0.00,,,0.00,0.000000,,2013-11-16 08:12:00,
2013-11-16 01:22:00,31.0,31.0,-100.00,South,183,10.0,20.0,98,0.00,,,0.00,0.000000,,2013-11-16 08:22:00,
2013-11-16 01:32:00,31.0,31.0,-100.00,South,183,10.0,20.0,98,0.00,,,0.00,0.000000,,2013-11-16 08:32:00,
2013-11-16 01:41:00,31.0,31.0,-100.00,South,183,10.0,20.0,98,0.00,,,0.00,0.000000,,2013-11-16 08:41:00,
2013-11-16 01:42:00,31.0,31.0,-100.00,South,172,14.0,23.0,98,0.00,,,0.00,0.000000,,2013-11-16 08:42:00,
2013-11-16 02:11:00,31.0,31.0,-100.00,South,172,14.0,23.0,98,0.00,,,0.00,0.000000,,2013-11-16 09:11:00,
2013-11-16 02:22:00,31.0,31.0,-100.00,South,172,14.0,23.0,98,0.00,,,0.00,0.000000,,2013-11-16 09:22:00,
2013-11-16 02:33:00,31.0,31.0,-100.00,South,172,14.0,23.0,98,0.00,,,0.00,0.000000,,2013-11-16 09:33:00,
2013-11-16 02:42:00,31.0,31.0,-100.00,South,183,12.0,19.0,99,0.00,,,0.00,0.000000,,2013-11-16 09:42:00,
2013-11-16 03:12:00,31.0,31.0,-100.00,South,183,12.0,19.0,99,0.00,,,0.00,0.000000,,2013-11-16 10:12:00,
2013-11-16 03:23:00,31.0,31.0,-100.00,South,183,12.0,19.0,99,0.00,,,0.00,0.000000,,2013-11-16 10:23:00,
2013-11-16 03:33:00,31.0,31.0,-100.00,South,183,12.0,19.0,99,0.00,,,0.00,0.000000,,2013-11-16 10:33:00,
2013-11-16 03:42:00,30.0,30.0,-100.00,South,171,13.0,25.0,99,0.00,,,0.00,0.000000,,2013-11-16 10:42:00,
2013-11-16 04:12:00,30.0,30.0,-100.00,South,171,13.0,25.0,99,0.00,,,0.00,0.000000,,2013-11-16 11:12:00,
2013-11-16 04:22:00,30.0,30.0,-100.00,South,171,13.0,25.0,99,0.00,,,0.00,0.000000,,2013-11-16 11:22:00,
2013-11-16 04:32:00,30.0,30.0,-100.00,South,171,13.0,25.0,99,0.00,,,0.00,0.000000,,2013-11-16 11:32:00,
2013-11-16 04:42:00,31.0,31.0,-100.00,South,179,14.0,25.0,99,0.00,,,0.00,0.000000,,2013-11-16 11:42:00,
2013-11-16 05:12:00,31.0,31.0,-100.00,South,179,14.0,25.0,99,0.00,,,0.00,0.000000,,2013-11-16 12:12:00,
2013-11-16 05:21:00,31.0,31.0,-100.00,South,179,14.0,25.0,99,0.00,,,0.00,0.000000,,2013-11-16 12:21:00,
2013-11-16 05:32:00,31.0,31.0,-100.00,South,179,14.0,25.0,99,0.00,,,0.00,0.000000,,2013-11-16 12:32:00,
2013-11-16 05:42:00,31.0,31.0,-100.00,South,173,14.0,26.0,99,0.00,,,0.00,0.000000,,2013-11-16 12:42:00,
2013-11-16 06:11:00,31.0,31.0,-100.00,South,173,14.0,26.0,99,0.00,,,0.00,0.000000,,2013-11-16 13:11:00,
2013-11-16 06:21:00,31.0,31.0,-100.00,South,173,14.0,26.0,99,0.00,,,0.00,0.000000,,2013-11-16 13:21:00,
2013-11-16 06:32:00,31.0,31.0,-100.00,South,173,14.0,26.0,99,0.00,,,0.00,0.000000,,2013-11-16 13:32:00,
2013-11-16 06:42:00,31.0,31.0,-100.00,South,183,17.0,30.0,99,0.00,,,0.00,0.000000,,2013-11-16 13:42:00,
2013-11-16 07:11:00,31.0,31.0,-100.00,South,183,17.0,30.0,99,0.00,,,0.00,0.000000,,2013-11-16 14:11:00,
2013-11-16 07:22:00,31.0,31.0,-100.00,South,183,17.0,30.0,99,0.00,,,0.00,0.000000,,2013-11-16 14:22:00,
2013-11-16 07:32:00,31.0,31.0,-100.00,South,183,17.0,30.0,99,0.00,,,0.00,0.000000,,2013-11-16 14:32:00,
2013-11-16 07:42:00,31.0,31.0,-100.00,SSE,168,18.0,32.0,99,0.00,,,0.00,0.000000,,2013-11-16 14:42:00,
2013-11-16 08:11:00,31.0,31.0,-100.00,SSE,168,18.0,32.0,99,0.00,,,0.00,0.000000,,2013-11-16 15:11:00,
2013-11-16 08:21:00,31.0,31.0,-100.00,SSE,168,18.0,32.0,99,0.00,,,0.00,0.000000,,2013-11-16 15:21:00,
2013-11-16 08:33:00,31.0,31.0,-100.00,SSE,168,18.0,32.0,99,0.00,,,0.00,0.000000,,2013-11-16 15:33:00,
2013-11-16 08:42:00,31.0,30.0,-100.00,South,175,18.0,34.0,97,0.00,,,0.00,6.000000,,2013-11-16 15:42:00,
2013-11-16 09:13:00,31.0,30.0,-100.00,South,175,18.0,34.0,97,0.00,,,0.00,6.000000,,2013-11-16 16:13:00,
2013-11-16 09:23:00,31.0,30.0,-100.00,South,175,18.0,34.0,97,0.00,,,0.00,6.000000,,2013-11-16 16:23:00,
2013-11-16 09:33:00,31.0,30.0,-100.00,South,175,18.0,34.0,97,0.00,,,0.00,6.000000,,2013-11-16 16:33:00,
2013-11-16 09:42:00,31.0,31.0,-100.00,South,174,10.0,26.0,98,0.00,,,0.00,25.000000,,2013-11-16 16:42:00,
2013-11-16 10:12:00,31.0,31.0,-100.00,South,174,10.0,26.0,98,0.00,,,0.00,25.000000,,2013-11-16 17:12:00,
2013-11-16 10:22:00,31.0,31.0,-100.00,South,174,10.0,26.0,98,0.00,,,0.00,25.000000,,2013-11-16 17:22:00,
2013-11-16 10:33:00,31.0,31.0,-100.00,South,174,10.0,26.0,98,0.00,,,0.00,25.000000,,2013-11-16 17:33:00,
2013-11-16 10:42:00,33.0,31.0,-100.00,NW,309,4.0,17.0,94,0.00,,,-99.99,110.000000,,2013-11-16 17:42:00,
2013-11-16 11:12:00,33.0,31.0,-100.00,NW,309,4.0,17.0,94,0.00,,,-99.99,110.000000,,2013-11-16 18:12:00,
2013-11-16 11:23:00,33.0,31.0,-100.00,NW,309,4.0,17.0,94,0.00,,,-99.99,110.000000,,2013-11-16 18:23:00,
2013-11-16 11:32:00,33.0,31.0,-100.00,NW,309,4.0,17.0,94,0.00,,,-99.99,110.000000,,2013-11-16 18:32:00,
2013-11-16 11:42:00,34.0,31.0,-100.00,SE,145,3.0,8.0,88,0.05,,,0.05,290.000000,,2013-11-16 18:42:00,
2013-11-16 12:12:00,34.0,31.0,-100.00,SE,145,3.0,8.0,88,0.05,,,0.05,290.000000,,2013-11-16 19:12:00,
2013-11-16 12:22:00,34.0,31.0,-100.00,SE,145,3.0,8.0,88,0.05,,,0.05,290.000000,,2013-11-16 19:22:00,
2013-11-16 12:32:00,34.0,31.0,-100.00,SE,145,3.0,8.0,88,0.05,,,0.05,290.000000,,2013-11-16 19:32:00,
2013-11-16 12:42:00,34.0,31.0,-100.00,NW,316,9.0,16.0,87,0.00,,,0.05,300.000000,,2013-11-16 19:42:00,
2013-11-16 13:12:00,34.0,31.0,-100.00,NW,316,9.0,16.0,87,0.00,,,0.05,300.000000,,2013-11-16 20:12:00,
2013-11-16 13:22:00,34.0,31.0,-100.00,NW,316,9.0,16.0,87,0.00,,,0.05,300.000000,,2013-11-16 20:22:00,
2013-11-16 13:32:00,34.0,31.0,-100.00,NW,316,9.0,16.0,87,0.00,,,0.05,300.000000,,2013-11-16 20:32:00,
2013-11-16 13:42:00,36.0,28.0,-100.00,NW,318,13.0,21.0,72,0.00,,,0.05,266.000000,,2013-11-16 20:42:00,
2013-11-16 14:11:00,36.0,28.0,-100.00,NW,318,13.0,21.0,72,0.00,,,0.05,266.000000,,2013-11-16 21:11:00,
2013-11-16 14:21:00,36.0,28.0,-100.00,NW,318,13.0,21.0,72,0.00,,,0.05,266.000000,,2013-11-16 21:21:00,
2013-11-16 14:34:00,36.0,28.0,-100.00,NW,318,13.0,21.0,72,0.00,,,0.05,266.000000,,2013-11-16 21:34:00,
2013-11-16 14:42:00,36.0,27.0,-100.00,NW,326,5.0,21.0,70,0.00,,,0.05,355.000000,,2013-11-16 21:42:00,
2013-11-16 15:13:00,36.0,27.0,-100.00,NW,326,5.0,21.0,70,0.00,,,0.05,355.000000,,2013-11-16 22:13:00,
2013-11-16 15:24:00,36.0,27.0,-100.00,NW,326,5.0,21.0,70,0.00,,,0.05,355.000000,,2013-11-16 22:24:00,
2013-11-16 15:34:00,36.0,27.0,-100.00,NW,326,5.0,21.0,70,0.00,,,0.05,355.000000,,2013-11-16 22:34:00,
2013-11-16 15:42:00,37.0,26.0,-100.00,NW,308,7.0,21.0,64,0.00,,,0.05,297.000000,,2013-11-16 22:42:00,
2013-11-16 16:13:00,37.0,26.0,-100.00,NW,308,7.0,21.0,64,0.00,,,0.05,297.000000,,2013-11-16 23:13:00,
2013-11-16 16:22:00,37.0,26.0,-100.00,NW,308,7.0,21.0,64,0.00,,,0.05,297.000000,,2013-11-16 23:22:00,
2013-11-16 16:34:00,37.0,26.0,-100.00,NW,308,7.0,21.0,64,0.00,,,0.05,297.000000,,2013-11-16 23:34:00,
2013-11-16 16:42:00,36.0,23.0,-100.00,NW,314,9.0,16.0,60,0.00,,,0.05,202.000000,,2013-11-16 23:42:00,
2013-11-16 17:12:00,36.0,23.0,-100.00,NW,314,9.0,16.0,60,0.00,,,0.05,202.000000,,2013-11-17 00:12:00,
2013-11-16 17:22:00,36.0,23.0,-100.00,NW,314,9.0,16.0,60,0.00,,,0.05,202.000000,,2013-11-17 00:22:00,
2013-11-16 17:32:00,36.0,23.0,-100.00,NW,314,9.0,16.0,60,0.00,,,0.05,202.000000,,2013-11-17 00:32:00,
2013-11-16 17:42:00,33.0,22.0,-100.00,North,349,3.0,9.0,64,0.00,,,0.05,12.000000,,2013-11-17 00:42:00,
2013-11-16 18:12:00,33.0,22.0,-100.00,North,349,3.0,9.0,64,0.00,,,0.05,12.000000,,2013-11-17 01:12:00,
2013-11-16 18:22:00,33.0,22.0,-100.00,North,349,3.0,9.0,64,0.00,,,0.05,12.000000,,2013-11-17 01:22:00,
2013-11-16 18:32:00,33.0,22.0,-100.00,North,349,3.0,9.0,64,0.00,,,0.05,12.000000,,2013-11-17 01:32:00,
2013-11-16 18:42:00,33.0,22.0,-100.00,North,350,3.0,9.0,64,0.00,,,0.05,0.000000,,2013-11-17 01:42:00,
2013-11-16 19:12:00,33.0,22.0,-100.00,North,350,3.0,9.0,64,0.00,,,0.05,0.000000,,2013-11-17 02:12:00,
2013-11-16 19:21:00,33.0,22.0,-100.00,North,350,3.0,9.0,64,0.00,,,0.05,0.000000,,2013-11-17 02:21:00,
2013-11-16 19:32:00,33.0,22.0,-100.00,North,350,3.0,9.0,64,0.00,,,0.05,0.000000,,2013-11-17 02:32:00,
2013-11-16 19:42:00,32.0,22.0,-100.00,NW,314,1.0,6.0,67,0.00,,,0.05,0.000000,,2013-11-17 02:42:00,
2013-11-16 20:12:00,32.0,22.0,-100.00,NW,314,1.0,6.0,67,0.00,,,0.05,0.000000,,2013-11-17 03:12:00,
2013-11-16 20:22:00,32.0,22.0,-100.00,NW,314,1.0,6.0,67,0.00,,,0.05,0.000000,,2013-11-17 03:22:00,
2013-11-16 20:34:00,32.0,22.0,-100.00,NW,314,1.0,6.0,67,0.00,,,0.05,0.000000,,2013-11-17 03:34:00,
2013-11-16 20:42:00,32.0,23.0,-100.00,SE,145,3.0,9.0,69,0.00,,,0.05,0.000000,,2013-11-17 03:42:00,
2013-11-16 21:02:00,-999.0,-99.9,-100.00,SE,145,3.0,9.0,-999,-99.99,,,-99.99,0.000000,,2013-11-17 04:02:00,
2013-11-16 21:14:00,32.0,23.0,-100.00,SE,145,3.0,9.0,69,0.00,,,0.05,0.000000,,2013-11-17 04:14:00,
2013-11-16 21:24:00,32.0,23.0,-100.00,SE,145,3.0,9.0,69,0.00,,,0.05,0.000000,,2013-11-17 04:24:00,
2013-11-16 21:34:00,32.0,23.0,-100.00,SE,145,3.0,9.0,69,0.00,,,0.05,0.000000,,2013-11-17 04:34:00,
2013-11-16 21:42:00,32.0,23.0,-100.00,SSE,154,3.0,10.0,69,0.00,,,0.05,0.000000,,2013-11-17 04:42:00,
2013-11-16 22:13:00,32.0,23.0,-100.00,SSE,154,3.0,10.0,69,0.00,,,0.05,0.000000,,2013-11-17 05:13:00,
2013-11-16 22:23:00,32.0,23.0,-100.00,SSE,154,3.0,10.0,69,0.00,,,0.05,0.000000,,2013-11-17 05:23:00,
2013-11-16 22:34:00,32.0,23.0,-100.00,SSE,154,3.0,10.0,69,0.00,,,0.05,0.000000,,2013-11-17 05:34:00,
2013-11-16 22:42:00,32.0,24.0,-100.00,South,172,2.0,8.0,72,0.00,,,0.05,0.000000,,2013-11-17 05:42:00,
2013-11-16 23:13:00,32.0,24.0,-100.00,South,172,2.0,8.0,72,0.00,,,0.05,0.000000,,2013-11-17 06:13:00,
2013-11-16 23:22:00,32.0,24.0,-100.00,South,172,2.0,8.0,72,0.00,,,0.05,0.000000,,2013-11-17 06:22:00,
2013-11-16 23:32:00,32.0,24.0,-100.00,South,172,2.0,8.0,72,0.00,,,0.05,0.000000,,2013-11-17 06:32:00,
2013-11-16 23:42:00,31.0,24.0,-100.00,SSE,151,5.0,12.0,75,0.00,,,0.05,0.000000,,2013-11-17 06:42:00,